Location: Great Snoring
(52.8667°N, 0.8833°E)
Time: 08:25:43
(UTC+00:00)

Cosmos 1833 Rocket - Visible Passes

Search period start: 09 June 2026 00:00
Search period end: 19 June 2026 00:00
Orbit: 831 x 839 km, 71.0° (Epoch: 8 June)

Date Brightness Start Highest point End Pass type
(mag) Time Alt. Az. Time Alt. Az. Time Alt. Az.
9 Jun 3.4 21:28:24 10° NNW 21:33:52 47° NE 21:39:17 10° ESE visible
9 Jun 3.4 23:12:29 10° NW 23:17:45 41° WSW 23:21:26 18° S visible
10 Jun 3.5 21:11:17 10° NNW 21:16:42 44° NE 21:22:05 10° ESE visible
10 Jun 3.3 22:55:19 10° NW 23:00:39 44° WSW 23:04:36 17° S visible
11 Jun 3.3 22:38:10 10° NW 22:43:33 47° WSW 22:47:48 16° S visible
12 Jun 3.2 22:20:59 10° NW 22:26:27 51° WSW 22:31:01 15° S visible
13 Jun 3.1 22:03:50 10° NW 22:09:21 55° WSW 22:14:17 13° S visible
13 Jun 5.1 23:51:36 10° W 23:52:00 10° W 23:52:24 10° W visible
14 Jun 3.1 21:46:41 10° NW 21:52:14 59° WSW 21:57:34 11° SSE visible
14 Jun 5.0 23:33:23 10° WNW 23:34:58 11° W 23:36:32 10° WSW visible
15 Jun 3.0 21:29:31 10° NW 21:35:07 64° WSW 21:40:41 10° SSE visible
15 Jun 4.9 23:15:45 10° WNW 23:17:55 12° W 23:20:05 10° WSW visible
16 Jun 2.9 21:12:23 10° NW 21:18:01 69° WSW 21:23:36 10° SSE visible
16 Jun 4.9 22:58:15 10° WNW 23:00:52 13° W 23:03:29 10° SW visible
17 Jun 4.9 22:40:50 10° WNW 22:43:49 15° W 22:46:48 10° SW visible
18 Jun 4.9 22:23:29 10° WNW 22:26:46 16° W 22:30:04 10° SW visible
